Date String (YYYY-MM-DD hh:mm:ss) UTC,Instrument flags,Ambient pressure (hPa),Sample flow (lpm),Bypass flow (lpm),Sample temperature (°C),Ambient temperature (°C),ASC tube jacket temperature (°C),LED temperature (°C),Box temperature (°C),Sample RH (%),Span deviation,Mass concentration (μg/m³),Mass concentration (μg/m³),Mass concentration (μg/m³)
DateTimeUTC,F1_M11,P_M11,Q1_M11,Q2_M11,T1_M11,T2_M11,T3_M11,T4_M11,T5_M11,U1_M11,ZSPAN_M11,X2_M11,X0_M11,X1_M11
2022-03-14 06:00:00,,0820.9,4.99,0.00,25.6,24.9,00.0,34.6,27.5,10.5,0000.0,0000.81,0003.40,0000.53
2022-03-14 06:01:00,,0820.9,5.01,0.00,25.6,24.9,00.0,34.6,27.5,10.4,0000.0,0000.78,0003.23,0000.52
2022-03-14 06:02:00,,0820.8,5.01,0.00,25.6,24.9,00.0,34.6,27.5,10.1,0000.0,0000.78,0002.72,0000.52
2022-03-14 06:03:00,,0820.8,5.00,0.00,25.6,24.9,00.0,34.6,27.4,10.0,0000.0,0000.81,0002.73,0000.51
2022-03-14 06:04:00,,0820.7,5.00,0.00,25.7,24.9,00.0,34.6,27.5,10.2,0000.0,0000.83,0002.78,0000.50
2022-03-14 06:05:00,,0820.7,4.99,0.00,25.6,24.9,00.0,34.6,27.4,11.1,0000.0,0000.86,0002.84,0000.50
2022-03-14 06:06:00,,0820.7,5.00,0.00,25.6,24.9,00.0,34.6,27.4,11.3,0000.0,0000.86,0002.91,0000.51
2022-03-14 06:07:00,,0820.7,5.01,0.00,25.6,24.9,00.0,34.6,27.5,11.3,0000.0,0000.87,0002.36,0000.50
2022-03-14 06:08:00,,0820.8,4.99,0.00,25.6,24.9,00.0,34.6,27.4,11.0,0000.0,0000.85,0001.82,0000.50
2022-03-14 06:09:00,,0820.7,5.00,0.00,25.6,24.9,00.0,34.6,27.4,10.7,0000.0,0000.84,0001.80,0000.49
2022-03-14 06:10:00,,0820.8,5.00,0.00,25.6,24.8,00.0,34.6,27.4,10.8,0000.0,0000.82,0001.69,0000.49
2022-03-14 06:11:00,,0820.8,5.00,0.00,25.6,24.8,00.0,34.6,27.4,10.8,0000.0,0000.79,0001.62,0000.49
2022-03-14 06:12:00,,0820.8,5.01,0.00,25.6,24.8,00.0,34.6,27.4,10.9,0000.0,0000.80,0001.53,0000.49
2022-03-14 06:13:00,,0820.9,4.98,0.00,25.6,24.8,00.0,34.6,27.4,10.9,0000.0,0000.84,0001.63,0000.50
2022-03-14 06:14:00,,0820.8,5.00,0.00,25.6,24.8,00.0,34.6,27.4,11.0,0000.0,0000.88,0001.98,0000.50
2022-03-14 06:15:00,,0820.9,5.00,0.00,25.6,24.8,00.0,34.6,27.4,10.8,0000.0,0000.86,0001.97,0000.51
2022-03-14 06:16:00,,0820.9,5.00,0.00,25.6,24.8,00.0,34.6,27.4,10.3,0000.0,0000.83,0001.92,0000.51
2022-03-14 06:17:00,,0821.0,4.99,0.00,25.6,24.8,00.0,34.6,27.4,10.3,0000.0,0000.81,0001.81,0000.50
2022-03-14 06:18:00,,0821.0,5.00,0.00,25.6,24.8,00.0,34.6,27.4,10.1,0000.0,0000.84,0001.82,0000.51
2022-03-14 06:19:00,,0821.0,5.00,0.00,25.6,24.8,00.0,34.6,27.5,10.1,0000.0,0000.85,0001.84,0000.51
2022-03-14 06:20:00,,0821.0,5.01,0.00,25.6,24.8,00.0,34.6,27.5,10.0,0000.0,0000.85,0001.81,0000.51
2022-03-14 06:21:00,,0821.0,5.00,0.00,25.6,24.9,00.0,34.6,27.5,10.0,0000.0,0000.89,0001.99,0000.50
2022-03-14 06:22:00,,0821.0,5.00,0.00,25.7,24.9,00.0,34.6,27.5,10.0,0000.0,0000.89,0003.11,0000.50
2022-03-14 06:23:00,,0821.0,5.00,0.00,25.7,24.9,00.0,34.6,27.5,10.2,0000.0,0000.89,0003.11,0000.51
2022-03-14 06:24:00,,0821.0,5.01,0.00,25.7,24.9,00.0,34.6,27.5,10.1,0000.0,0000.85,0003.01,0000.51
2022-03-14 06:25:00,,0821.0,5.01,0.00,25.7,24.9,00.0,34.6,27.5,10.0,0000.0,0000.81,0002.67,0000.51
2022-03-14 06:26:00,,0821.0,5.00,0.00,25.7,24.9,00.0,34.6,27.5,10.0,0000.0,0000.79,0002.55,0000.51
2022-03-14 06:27:00,,0821.0,5.00,0.00,25.7,24.9,00.0,34.6,27.5,10.0,0000.0,0000.79,0002.61,0000.52
2022-03-14 06:28:00,,0821.0,5.00,0.00,25.7,24.9,00.0,34.6,27.5,10.0,0000.0,0000.80,0002.63,0000.52
2022-03-14 06:29:00,,0821.0,5.00,0.00,25.7,24.9,00.0,34.6,27.5,09.8,0000.0,0000.75,0002.50,0000.51
2022-03-14 06:30:00,,0820.9,5.01,0.00,25.7,24.9,00.0,34.6,27.5,09.8,0000.0,0000.73,0002.42,0000.51
2022-03-14 06:31:00,,0821.0,4.98,0.00,25.7,24.9,00.0,34.6,27.5,09.8,0000.0,0000.73,0002.49,0000.51
2022-03-14 06:32:00,,0821.0,5.00,0.00,25.7,24.9,00.0,34.6,27.5,09.6,0000.0,0000.72,0002.52,0000.51
2022-03-14 06:33:00,,0821.0,5.01,0.00,25.7,24.9,00.0,34.6,27.5,09.5,0000.0,0000.73,0001.35,0000.51
2022-03-14 06:34:00,,0821.0,5.01,0.00,25.7,24.9,00.0,34.6,27.5,09.4,0000.0,0000.74,0001.35,0000.50
2022-03-14 06:35:00,,0821.1,5.00,0.00,25.7,24.9,00.0,34.6,27.5,09.2,0000.0,0000.75,0001.40,0000.49
2022-03-14 06:36:00,,0821.0,5.00,0.00,25.7,24.9,00.0,34.6,27.5,09.1,0000.0,0000.75,0001.42,0000.48
2022-03-14 06:37:00,,0821.0,4.99,0.00,25.7,24.9,00.0,34.6,27.5,09.0,0000.0,0000.76,0001.47,0000.48
2022-03-14 06:38:00,,0821.1,5.00,0.00,25.7,24.9,00.0,34.6,27.5,08.7,0000.0,0000.75,0001.42,0000.47
2022-03-14 06:39:00,,0821.1,5.00,0.00,25.7,24.9,00.0,34.6,27.5,08.6,0000.0,0000.80,0001.55,0000.47
2022-03-14 06:40:00,,0821.2,5.00,0.00,25.7,24.9,00.0,34.6,27.5,08.8,0000.0,0000.86,0001.70,0000.48
2022-03-14 06:41:00,,0821.1,4.99,0.00,25.7,24.9,00.0,34.6,27.5,09.0,0000.0,0000.87,0002.24,0000.48
2022-03-14 06:42:00,,0821.2,5.00,0.00,25.7,24.9,00.0,34.6,27.5,09.0,0000.0,0000.90,0002.42,0000.49
2022-03-14 06:43:00,,0821.1,5.00,0.00,25.7,24.9,00.0,34.6,27.5,08.9,0000.0,0000.88,0002.42,0000.48
2022-03-14 06:44:00,,0821.2,5.01,0.00,25.7,24.9,00.0,34.6,27.6,08.8,0000.0,0000.87,0002.82,0000.48
2022-03-14 06:45:00,,0821.2,5.00,0.00,25.7,24.9,00.0,34.7,27.6,08.8,0000.0,0000.88,0002.84,0000.49
2022-03-14 06:46:00,,0821.2,4.98,0.00,25.7,24.9,00.0,34.6,27.5,08.8,0000.0,0000.87,0002.82,0000.49
2022-03-14 06:47:00,,0821.2,5.01,0.00,25.7,24.9,00.0,34.6,27.5,08.8,0000.0,0000.86,0002.82,0000.49
2022-03-14 06:48:00,,0821.2,5.00,0.00,25.7,25.0,00.0,34.7,27.5,09.0,0000.0,0000.89,0002.89,0000.50
2022-03-14 06:49:00,,0821.3,5.01,0.00,25.7,25.0,00.0,34.7,27.6,09.0,0000.0,0000.90,0002.95,0000.50
2022-03-14 06:50:00,,0821.3,5.00,0.00,25.7,25.0,00.0,34.7,27.5,09.0,0000.0,0000.86,0002.95,0000.50
2022-03-14 06:51:00,,0821.2,4.98,0.00,25.8,25.0,00.0,34.7,27.6,08.8,0000.0,0000.83,0004.06,0000.50
2022-03-14 06:52:00,,0821.2,5.00,0.00,25.8,25.0,00.0,34.7,27.6,08.0,0000.0,0000.85,0003.74,0000.49
2022-03-14 06:53:00,,0821.2,5.00,0.00,25.8,25.0,00.0,34.7,27.6,07.6,0000.0,0000.88,0003.55,0000.48
2022-03-14 06:54:00,,0821.3,5.01,0.00,25.8,25.0,00.0,34.7,27.6,07.6,0000.0,0000.88,0003.56,0000.48
2022-03-14 06:55:00,,0821.3,5.00,0.00,25.8,25.0,00.0,34.7,27.6,07.6,0000.0,0000.93,0003.27,0000.48
2022-03-14 06:56:00,,0821.3,4.99,0.00,25.8,25.0,00.0,34.7,27.6,07.6,0000.0,0000.97,0003.42,0000.48
2022-03-14 06:57:00,,0821.4,5.01,0.00,25.8,25.0,00.0,34.7,27.6,07.6,0000.0,0001.01,0003.50,0000.49
2022-03-14 06:58:00,,0821.4,5.00,0.00,25.8,25.0,00.0,34.7,27.6,07.5,0000.0,0001.05,0003.64,0000.50
2022-03-14 06:59:00,,0821.4,4.99,0.00,25.8,25.0,00.0,34.7,27.6,07.6,0000.0,0001.06,0004.55,0000.50
